| time (UTC) | temp C | wind direction | speed KPH | gust KPH | rain 1hr cm | rain 24hr cm | rain mn cm | humidity % | barometer mb |
| 20260507110428 | 5 | 322 | 1.6 | 8.0 | 0.00 | 0.00 | 0.00 | 66 | 1018.8 |
| 20260507105922 | 5 | 301 | 0.0 | 8.0 | 0.00 | 0.00 | 0.00 | 68 | 1018.9 |
| 20260507105417 | 5 | 308 | 0.0 | 3.2 | 0.00 | 0.00 | 0.00 | 68 | 1018.9 |
| 20260507104911 | 5 | 292 | 0.0 | 1.6 | 0.00 | 0.00 | 0.00 | 69 | 1018.9 |
| 20260507104622 | 5 | 24 | 0.0 | 1.6 | 0.00 | 0.00 | 0.00 | 70 | 1018.9 |
| 20260507103902 | 5 | 15 | 0.0 | 1.6 | 0.00 | 0.00 | 0.00 | 70 | 1018.8 |
| 20260507103400 | 5 | 337 | 0.0 | 1.6 | 0.00 | 0.00 | 0.00 | 70 | 1018.7 |
| 20260507102858 | 5 | 297 | 0.0 | 3.2 | 0.00 | 0.00 | 0.00 | 70 | 1018.7 |
| 20260507102452 | 5 | 12 | 0.0 | 3.2 | 0.00 | 0.00 | 0.00 | 70 | 1018.6 |
| 20260507101355 | 5 | 4 | 0.0 | 3.2 | 0.00 | 0.00 | 0.00 | 70 | 1018.6 |
| 20260507100853 | 5 | 294 | 0.0 | 3.2 | 0.00 | 0.00 | 0.00 | 70 | 1018.6 |
| 20260507100616 | 5 | 281 | 0.0 | 1.6 | 0.00 | 0.00 | 0.00 | 70 | 1018.6 |
| 20260507095855 | 5 | 289 | 0.0 | 1.6 | 0.00 | 0.00 | 0.00 | 69 | 1018.6 |
| 20260507095351 | 5 | 289 | 0.0 | 1.6 | 0.00 | 0.00 | 0.00 | 69 | 1018.5 |
| 20260507094849 | 5 | 272 | 0.0 | 1.6 | 0.00 | 0.00 | 0.00 | 69 | 1018.6 |
| 20260507094349 | 5 | 296 | 0.0 | 0.0 | 0.00 | 0.00 | 0.00 | 68 | 1018.5 |
| 20260507093850 | 5 | 325 | 0.0 | 1.6 | 0.00 | 0.00 | 0.00 | 68 | 1018.5 |
| 20260507093347 | 5 | 325 | 0.0 | 1.6 | 0.00 | 0.00 | 0.00 | 68 | 1018.4 |
| 20260507092845 | 5 | 293 | 0.0 | 1.6 | 0.00 | 0.00 | 0.00 | 67 | 1018.4 |
| 20260507092343 | 5 | 303 | 0.0 | 3.2 | 0.00 | 0.00 | 0.00 | 67 | 1018.2 |
| 20260507091843 | 5 | 277 | 0.0 | 3.2 | 0.00 | 0.00 | 0.00 | 67 | 1018.2 |
| 20260507091344 | 5 | 303 | 0.0 | 3.2 | 0.00 | 0.00 | 0.00 | 67 | 1018.2 |
| 20260507090837 | 5 | 305 | 0.0 | 4.8 | 0.00 | 0.00 | 0.00 | 67 | 1018.4 |
| 20260507090335 | 5 | 266 | 0.0 | 4.8 | 0.00 | 0.00 | 0.00 | 66 | 1018.4 |
| 20260507085836 | 5 | 296 | 0.0 | 4.8 | 0.00 | 0.00 | 0.00 | 67 | 1018.4 |
| 20260507085334 | 6 | 294 | 0.0 | 3.2 | 0.00 | 0.00 | 0.00 | 66 | 1018.1 |
| 20260507084833 | 6 | 302 | 0.0 | 1.6 | 0.00 | 0.00 | 0.00 | 66 | 1018.1 |
| 20260507084333 | 6 | 288 | 0.0 | 1.6 | 0.00 | 0.00 | 0.00 | 67 | 1018.0 |
| 20260507083833 | 6 | 300 | 0.0 | 3.2 | 0.00 | 0.00 | 0.00 | 66 | 1018.1 |
| 20260507083333 | 6 | 290 | 0.0 | 4.8 | 0.00 | 0.00 | 0.00 | 66 | 1018.0 |
| 20260507082835 | 6 | 289 | 0.0 | 4.8 | 0.00 | 0.00 | 0.00 | 66 | 1018.0 |
| 20260507082334 | 6 | 284 | 0.0 | 3.2 | 0.00 | 0.00 | 0.00 | 66 | 1018.0 |
| 20260507082051 | 6 | 57 | 0.0 | 1.6 | 0.00 | 0.00 | 0.00 | 67 | 1018.0 |
| 20260507081328 | 6 | 309 | 0.0 | 4.8 | 0.00 | 0.00 | 0.00 | 66 | 1017.9 |
| 20260507080829 | 6 | 240 | 0.0 | 4.8 | 0.00 | 0.00 | 0.00 | 67 | 1017.8 |
| 20260507080329 | 6 | 313 | 0.0 | 3.2 | 0.00 | 0.00 | 0.00 | 66 | 1017.7 |
| 20260507075829 | 6 | 274 | 0.0 | 6.4 | 0.00 | 0.00 | 0.00 | 66 | 1017.6 |
| 20260507075329 | 6 | 225 | 0.0 | 6.4 | 0.00 | 0.00 | 0.00 | 65 | 1017.7 |
| 20260507075051 | 6 | 296 | 0.0 | 1.6 | 0.00 | 0.00 | 0.00 | 65 | 1017.6 |
| 20260507074329 | 6 | 269 | 0.0 | 4.8 | 0.00 | 0.00 | 0.00 | 64 | 1017.5 |
| 20260507073829 | 6 | 219 | 0.0 | 9.7 | 0.00 | 0.00 | 0.00 | 64 | 1017.4 |
| 20260507073329 | 7 | 235 | 0.0 | 9.7 | 0.00 | 0.00 | 0.00 | 64 | 1017.4 |
| 20260507072829 | 7 | 252 | 0.0 | 6.4 | 0.00 | 0.00 | 0.00 | 63 | 1017.3 |
| 20260507072334 | 7 | 332 | 0.0 | 11.3 | 0.00 | 0.00 | 0.00 | 62 | 1017.1 |
| 20260507071828 | 7 | 249 | 0.0 | 11.3 | 0.00 | 0.00 | 0.00 | 62 | 1017.1 |
| 20260507071329 | 7 | 293 | 0.0 | 9.7 | 0.00 | 0.00 | 0.00 | 60 | 1017.0 |
| 20260507070827 | 7 | 203 | 0.0 | 4.8 | 0.00 | 0.00 | 0.00 | 60 | 1017.0 |
| 20260507070327 | 7 | 312 | 0.0 | 1.6 | 0.00 | 0.00 | 0.00 | 59 | 1016.9 |
| 20260507065828 | 7 | 146 | 0.0 | 4.8 | 0.00 | 0.00 | 0.00 | 58 | 1016.8 |
| 20260507065327 | 8 | 298 | 0.0 | 4.8 | 0.00 | 0.00 | 0.00 | 57 | 1016.7 |
| 20260507064827 | 8 | 300 | 0.0 | 4.8 | 0.00 | 0.00 | 0.00 | 56 | 1016.5 |
| 20260507064328 | 8 | 198 | 0.0 | 8.0 | 0.00 | 0.00 | 0.00 | 55 | 1016.4 |
| 20260507063827 | 8 | 256 | 1.6 | 12.9 | 0.00 | 0.00 | 0.00 | 55 | 1016.4 |
| 20260507063326 | 8 | 223 | 3.2 | 17.7 | 0.00 | 0.00 | 0.00 | 53 | 1016.4 |
| 20260507062822 | 8 | 206 | 3.2 | 17.7 | 0.00 | 0.00 | 0.00 | 52 | 1016.4 |
| 20260507062322 | 8 | 230 | 1.6 | 11.3 | 0.00 | 0.00 | 0.00 | 51 | 1016.3 |
| 20260507061821 | 8 | 216 | 3.2 | 19.3 | 0.00 | 0.00 | 0.00 | 52 | 1016.3 |
| 20260507061321 | 8 | 203 | 3.2 | 24.1 | 0.00 | 0.00 | 0.00 | 52 | 1016.3 |
| 20260507060821 | 8 | 320 | 3.2 | 24.1 | 0.00 | 0.00 | 0.00 | 53 | 1016.4 |
| 20260507060318 | 9 | 207 | 1.6 | 9.7 | 0.00 | 0.00 | 0.00 | 53 | 1016.2 |
| 20260507055817 | 9 | 231 | 1.6 | 12.9 | 0.00 | 0.00 | 0.00 | 53 | 1016.2 |
| 20260507055317 | 9 | 249 | 1.6 | 12.9 | 0.00 | 0.00 | 0.00 | 52 | 1016.2 |
| 20260507055039 | 9 | 231 | 3.2 | 17.7 | 0.00 | 0.00 | 0.00 | 51 | 1016.1 |
| 20260507054317 | 9 | 238 | 1.6 | 17.7 | 0.00 | 0.00 | 0.00 | 50 | 1016.1 |
| 20260507053818 | 9 | 223 | 1.6 | 11.3 | 0.00 | 0.00 | 0.00 | 50 | 1016.0 |
| 20260507053316 | 9 | 242 | 1.6 | 9.7 | 0.00 | 0.00 | 0.00 | 50 | 1015.9 |
| 20260507053038 | 10 | 242 | 1.6 | 12.9 | 0.00 | 0.00 | 0.00 | 48 | 1015.8 |
| 20260507052316 | 10 | 238 | 1.6 | 12.9 | 0.00 | 0.00 | 0.00 | 48 | 1015.8 |
| 20260507051812 | 10 | 241 | 3.2 | 24.1 | 0.00 | 0.00 | 0.00 | 47 | 1015.7 |
| 20260507051313 | 10 | 209 | 3.2 | 24.1 | 0.00 | 0.00 | 0.00 | 47 | 1015.6 |
| 20260507051036 | 10 | 230 | 1.6 | 19.3 | 0.00 | 0.00 | 0.00 | 48 | 1015.6 |
| 20260507050314 | 10 | 216 | 1.6 | 19.3 | 0.00 | 0.00 | 0.00 | 46 | 1015.6 |
| 20260507045806 | 10 | 239 | 3.2 | 16.1 | 0.00 | 0.00 | 0.00 | 45 | 1015.5 |
| 20260507045259 | 10 | 146 | 3.2 | 19.3 | 0.00 | 0.00 | 0.00 | 47 | 1015.4 |
| 20260507044754 | 10 | 234 | 3.2 | 19.3 | 0.00 | 0.00 | 0.00 | 46 | 1015.3 |
| 20260507044248 | 10 | 237 | 3.2 | 19.3 | 0.00 | 0.00 | 0.00 | 45 | 1015.3 |
| 20260507044004 | 10 | 334 | 1.6 | 16.1 | 0.00 | 0.00 | 0.00 | 44 | 1015.2 |
| 20260507043238 | 11 | 253 | 1.6 | 11.3 | 0.00 | 0.00 | 0.00 | 44 | 1015.2 |
| 20260507042730 | 10 | 228 | 3.2 | 17.7 | 0.00 | 0.00 | 0.00 | 44 | 1015.2 |
| 20260507042225 | 11 | 229 | 1.6 | 17.7 | 0.00 | 0.00 | 0.00 | 42 | 1015.1 |
| 20260507041718 | 11 | 255 | 1.6 | 16.1 | 0.00 | 0.00 | 0.00 | 43 | 1015.1 |
| 20260507041430 | 11 | 249 | 3.2 | 16.1 | 0.00 | 0.00 | 0.00 | 43 | 1015.0 |
| 20260507041151 | 11 | 239 | 1.6 | 14.5 | 0.00 | 0.00 | 0.00 | 42 | 1014.8 |
| 20260507040200 | 11 | 199 | 1.6 | 16.1 | 0.00 | 0.00 | 0.00 | 44 | 1014.7 |
| 20260507035654 | 11 | 152 | 3.2 | 16.1 | 0.00 | 0.00 | 0.00 | 42 | 1014.6 |
| 20260507035148 | 11 | 302 | 1.6 | 11.3 | 0.00 | 0.00 | 0.00 | 44 | 1014.7 |
| 20260507034645 | 11 | 278 | 1.6 | 11.3 | 0.00 | 0.00 | 0.00 | 44 | 1014.7 |
| 20260507034136 | 10 | 244 | 3.2 | 14.5 | 0.00 | 0.00 | 0.00 | 45 | 1014.7 |
| 20260507033631 | 10 | 286 | 4.8 | 17.7 | 0.00 | 0.00 | 0.00 | 44 | 1014.8 |
| 20260507033129 | 10 | 248 | 4.8 | 17.7 | 0.00 | 0.00 | 0.00 | 41 | 1015.0 |
| 20260507033057 | 10 | 239 | 4.8 | 19.3 | 0.00 | 0.00 | 0.00 | 44 | 1014.8 |
| 20260507032112 | 10 | 248 | 4.8 | 20.9 | 0.00 | 0.00 | 0.00 | 42 | 1014.7 |
| 20260507031606 | 11 | 246 | 4.8 | 20.9 | 0.00 | 0.00 | 0.00 | 44 | 1014.6 |
| 20260507031100 | 10 | 235 | 9.7 | 27.4 | 0.00 | 0.00 | 0.00 | 43 | 1014.5 |
| 20260507030554 | 10 | 233 | 9.7 | 27.4 | 0.00 | 0.00 | 0.00 | 42 | 1014.4 |
| 20260507030310 | 11 | 215 | 4.8 | 17.7 | 0.00 | 0.00 | 0.00 | 44 | 1014.5 |
| 20260507025542 | 11 | 203 | 3.2 | 14.5 | 0.00 | 0.00 | 0.00 | 46 | 1014.4 |
| 20260507025036 | 11 | 219 | 3.2 | 19.3 | 0.00 | 0.00 | 0.00 | 45 | 1014.4 |
| 20260507024529 | 11 | 254 | 3.2 | 19.3 | 0.00 | 0.00 | 0.00 | 45 | 1014.3 |
| 20260507024251 | 11 | 257 | 3.2 | 16.1 | 0.00 | 0.00 | 0.00 | 45 | 1014.5 |
| 20260507023518 | 11 | 271 | 3.2 | 16.1 | 0.00 | 0.00 | 0.00 | 45 | 1014.4 |
| 20260507023235 | 11 | 252 | 3.2 | 16.1 | 0.00 | 0.00 | 0.00 | 45 | 1014.5 |
| 20260507022506 | 11 | 31 | 1.6 | 12.9 | 0.00 | 0.00 | 0.00 | 47 | 1014.5 |
| 20260507022007 | 11 | 204 | 3.2 | 11.3 | 0.00 | 0.00 | 0.00 | 45 | 1014.6 |
| 20260507021506 | 10 | 195 | 4.8 | 19.3 | 0.00 | 0.00 | 0.00 | 46 | 1014.6 |
| 20260507021008 | 10 | 268 | 4.8 | 19.3 | 0.00 | 0.00 | 0.00 | 47 | 1014.7 |
| 20260507020730 | 10 | 183 | 4.8 | 16.1 | 0.00 | 0.00 | 0.00 | 46 | 1014.7 |
| 20260507020006 | 10 | 213 | 4.8 | 16.1 | 0.00 | 0.00 | 0.00 | 47 | 1014.8 |
| 20260507015506 | 10 | 227 | 4.8 | 20.9 | 0.00 | 0.00 | 0.00 | 47 | 1014.7 |
| 20260507015102 | 10 | 235 | 6.4 | 20.9 | 0.00 | 0.00 | 0.00 | 46 | 1014.7 |
| 20260507014007 | 10 | 216 | 3.2 | 20.9 | 0.00 | 0.00 | 0.00 | 46 | 1015.0 |
| 20260507013506 | 10 | 215 | 4.8 | 19.3 | 0.00 | 0.00 | 0.00 | 48 | 1015.0 |
| 20260507013011 | 10 | 236 | 4.8 | 19.3 | 0.00 | 0.00 | 0.00 | 47 | 1014.8 |
| 20260507012504 | 10 | 185 | 4.8 | 14.5 | 0.00 | 0.00 | 0.00 | 49 | 1015.0 |
| 20260507012004 | 10 | 247 | 4.8 | 14.5 | 0.00 | 0.00 | 0.00 | 47 | 1015.0 |
| 20260507011725 | 10 | 267 | 3.2 | 19.3 | 0.00 | 0.00 | 0.00 | 47 | 1014.8 |
| 20260507011004 | 10 | 239 | 1.6 | 19.3 | 0.00 | 0.00 | 0.00 | 48 | 1014.8 |
| 20260507010504 | 10 | 251 | 1.6 | 12.9 | 0.00 | 0.00 | 0.00 | 47 | 1014.7 |
| 20260507010004 | 10 | 210 | 1.6 | 12.9 | 0.00 | 0.00 | 0.00 | 48 | 1014.5 |
| 20260507005723 | 10 | 307 | 3.2 | 17.7 | 0.00 | 0.00 | 0.00 | 49 | 1014.6 |
| 20260507004952 | 9 | 268 | 3.2 | 17.7 | 0.00 | 0.00 | 0.00 | 49 | 1014.6 |
| 20260507004446 | 9 | 259 | 1.6 | 16.1 | 0.00 | 0.00 | 0.00 | 49 | 1014.6 |
| 20260507004202 | 9 | 256 | 1.6 | 12.9 | 0.00 | 0.00 | 0.00 | 48 | 1014.6 |
| 20260507003435 | 9 | 330 | 1.6 | 12.9 | 0.00 | 0.00 | 0.00 | 49 | 1014.6 |
| 20260507003151 | 8 | 197 | 3.2 | 17.7 | 0.00 | 0.00 | 0.00 | 50 | 1014.6 |
| 20260507002423 | 8 | 234 | 4.8 | 17.7 | 0.00 | 0.00 | 0.00 | 49 | 1014.5 |
| 20260507001922 | 8 | 236 | 4.8 | 16.1 | 0.00 | 0.00 | 0.00 | 49 | 1014.5 |
| 20260507001420 | 8 | 235 | 3.2 | 16.1 | 0.00 | 0.00 | 0.00 | 49 | 1014.7 |
| 20260507000921 | 8 | 225 | 1.6 | 11.3 | 0.00 | 0.00 | 0.00 | 49 | 1014.6 |
| 20260507000646 | 8 | 200 | 4.8 | 14.5 | 0.00 | 0.00 | 0.00 | 51 | 1014.6 |
| 20260506235920 | 8 | 234 | 6.4 | 27.4 | 0.00 | 0.00 | 0.00 | 48 | 1014.6 |
| 20260506235642 | 8 | 216 | 6.4 | 27.4 | 0.00 | 0.00 | 0.00 | 49 | 1014.5 |
| 20260506234920 | 8 | 235 | 4.8 | 24.1 | 0.00 | 0.00 | 0.00 | 50 | 1014.4 |
| 20260506234420 | 8 | 234 | 3.2 | 14.5 | 0.00 | 0.00 | 0.00 | 49 | 1014.5 |
| 20260506233920 | 8 | 232 | 4.8 | 14.5 | 0.00 | 0.00 | 0.00 | 49 | 1014.4 |
| 20260506233420 | 8 | 180 | 3.2 | 14.5 | 0.00 | 0.00 | 0.00 | 49 | 1014.4 |
| 20260506232920 | 8 | 199 | 1.6 | 14.5 | 0.00 | 0.00 | 0.00 | 49 | 1014.2 |
| 20260506232421 | 8 | 232 | 1.6 | 14.5 | 0.00 | 0.00 | 0.00 | 49 | 1014.2 |
| 20260506231920 | 8 | 252 | 1.6 | 11.3 | 0.00 | 0.00 | 0.00 | 50 | 1014.1 |
| 20260506231638 | 8 | 230 | 3.2 | 12.9 | 0.00 | 0.00 | 0.00 | 51 | 1014.2 |
| 20260506230918 | 8 | 244 | 3.2 | 12.9 | 0.00 | 0.00 | 0.00 | 51 | 1014.1 |
| 20260506230418 | 7 | 218 | 4.8 | 16.1 | 0.00 | 0.00 | 0.00 | 50 | 1014.1 |
| 20260506225918 | 7 | 234 | 4.8 | 22.5 | 0.00 | 0.00 | 0.00 | 51 | 1014.1 |
| 20260506225419 | 7 | 227 | 3.2 | 22.5 | 0.00 | 0.00 | 0.00 | 50 | 1014.2 |
| 20260506225148 | 7 | 276 | 4.8 | 19.3 | 0.00 | 0.00 | 0.00 | 51 | 1014.1 |
| 20260506224418 | 7 | 265 | 6.4 | 24.1 | 0.00 | 0.00 | 0.00 | 51 | 1014.0 |
| 20260506223918 | 7 | 230 | 4.8 | 24.1 | 0.00 | 0.00 | 0.00 | 50 | 1013.9 |
| 20260506223418 | 8 | 200 | 1.6 | 17.7 | 0.00 | 0.00 | 0.00 | 50 | 1013.9 |
| 20260506222920 | 8 | 300 | 1.6 | 8.0 | 0.00 | 0.00 | 0.00 | 52 | 1013.8 |
| 20260506222418 | 8 | 219 | 0.0 | 11.3 | 0.00 | 0.00 | 0.00 | 53 | 1013.6 |
| 20260506221920 | 7 | 199 | 1.6 | 14.5 | 0.00 | 0.00 | 0.00 | 53 | 1013.5 |
| 20260506221418 | 7 | 220 | 1.6 | 14.5 | 0.00 | 0.00 | 0.00 | 53 | 1013.2 |
| 20260506220919 | 7 | 299 | 0.0 | 4.8 | 0.00 | 0.00 | 0.00 | 55 | 1013.2 |
| 20260506220418 | 7 | 277 | 0.0 | 3.2 | 0.00 | 0.00 | 0.00 | 59 | 1013.0 |
| 20260506215918 | 7 | 316 | 0.0 | 6.4 | 0.00 | 0.00 | 0.00 | 60 | 1013.0 |
| 20260506215641 | 6 | 211 | 1.6 | 8.0 | 0.00 | 0.00 | 0.00 | 61 | 1012.7 |
| 20260506214918 | 6 | 264 | 1.6 | 11.3 | 0.00 | 0.00 | 0.00 | 62 | 1012.8 |
| 20260506214423 | 6 | 318 | 1.6 | 11.3 | 0.00 | 0.00 | 0.00 | 63 | 1012.6 |
| 20260506213916 | 6 | 311 | 1.6 | 11.3 | 0.00 | 0.00 | 0.00 | 66 | 1012.6 |
| 20260506213416 | 6 | 14 | 1.6 | 8.0 | 0.00 | 0.00 | 0.00 | 68 | 1012.5 |
| 20260506212916 | 6 | 204 | 1.6 | 8.0 | 0.00 | 0.00 | 0.00 | 69 | 1012.4 |
| 20260506212416 | 6 | 305 | 1.6 | 8.0 | 0.00 | 0.00 | 0.00 | 70 | 1012.4 |
| 20260506212138 | 6 | 261 | 1.6 | 8.0 | 0.00 | 0.00 | 0.00 | 71 | 1012.3 |
| 20260506211419 | 6 | 283 | 0.0 | 4.8 | 0.00 | 0.00 | 0.00 | 73 | 1012.1 |
| 20260506210914 | 6 | 299 | 0.0 | 0.0 | 0.00 | 0.00 | 0.00 | 76 | 1012.0 |
| 20260506210415 | 7 | 310 | 0.0 | 1.6 | 0.00 | 0.00 | 0.00 | 76 | 1011.9 |
| 20260506210140 | 7 | 251 | 1.6 | 8.0 | 0.00 | 0.00 | 0.00 | 76 | 1012.0 |
| 20260506205639 | 7 | 284 | 1.6 | 14.5 | 0.00 | 0.00 | 0.00 | 76 | 1011.9 |
| 20260506204914 | 7 | 259 | 3.2 | 14.5 | 0.00 | 0.00 | 0.00 | 75 | 1011.7 |
| 20260506204412 | 8 | 203 | 4.8 | 17.7 | 0.00 | 0.00 | 0.00 | 74 | 1011.8 |
| 20260506203911 | 8 | 261 | 6.4 | 17.7 | 0.00 | 0.00 | 0.00 | 70 | 1011.7 |
| 20260506203405 | 8 | 300 | 8.0 | 20.9 | 0.00 | 0.00 | 0.00 | 71 | 1011.3 |
| 20260506202857 | 8 | 253 | 6.4 | 24.1 | 0.00 | 0.00 | 0.00 | 74 | 1011.3 |
| 20260506202356 | 8 | 258 | 4.8 | 24.1 | 0.00 | 0.00 | 0.00 | 75 | 1011.1 |
| 20260506202130 | 8 | 306 | 6.4 | 20.9 | 0.00 | 0.00 | 0.00 | 75 | 1010.8 |
| 20260506201356 | 8 | 249 | 6.4 | 20.9 | 0.00 | 0.00 | 0.00 | 76 | 1010.7 |
| 20260506201111 | 8 | 40 | 6.4 | 20.9 | 0.00 | 0.03 | 0.00 | 77 | 1010.6 |
| 20260506200354 | 8 | 3 | 6.4 | 19.3 | 0.00 | 0.03 | 0.00 | 78 | 1010.5 |
| 20260506195854 | 8 | 287 | 3.2 | 19.3 | 0.00 | 0.03 | 0.00 | 81 | 1010.7 |
| 20260506195353 | 8 | 301 | 1.6 | 14.5 | 0.00 | 0.03 | 0.00 | 82 | 1010.7 |
| 20260506194855 | 8 | 31 | 1.6 | 14.5 | 0.00 | 0.03 | 0.00 | 84 | 1010.7 |
| 20260506194353 | 8 | 315 | 1.6 | 14.5 | 0.00 | 0.03 | 0.00 | 85 | 1010.9 |
| 20260506193853 | 8 | 68 | 1.6 | 8.0 | 0.00 | 0.03 | 0.00 | 87 | 1010.9 |
| 20260506193352 | 8 | 279 | 1.6 | 8.0 | 0.00 | 0.03 | 0.00 | 88 | 1010.9 |
| 20260506192850 | 7 | 12 | 0.0 | 6.4 | 0.00 | 0.03 | 0.00 | 89 | 1010.9 |
| 20260506192350 | 7 | 43 | 0.0 | 6.4 | 0.00 | 0.03 | 0.00 | 89 | 1011.0 |
| 20260506191850 | 7 | 59 | 0.0 | 8.0 | 0.00 | 0.03 | 0.00 | 89 | 1011.1 |
| 20260506191351 | 8 | 5 | 1.6 | 11.3 | 0.00 | 0.03 | 0.00 | 89 | 1011.2 |
| 20260506190847 | 8 | 25 | 1.6 | 12.9 | 0.00 | 0.03 | 0.00 | 89 | 1011.1 |
| 20260506190346 | 8 | 287 | 3.2 | 17.7 | 0.00 | 0.03 | 0.00 | 89 | 1011.4 |
| 20260506185846 | 8 | 56 | 4.8 | 17.7 | 0.00 | 0.03 | 0.00 | 88 | 1011.4 |
| 20260506185338 | 8 | 3 | 4.8 | 17.7 | 0.00 | 0.03 | 0.00 | 87 | 1011.5 |
| 20260506184832 | 8 | 46 | 6.4 | 17.7 | 0.00 | 0.03 | 0.00 | 87 | 1011.5 |
| 20260506184551 | 8 | 29 | 4.8 | 14.5 | 0.00 | 0.03 | 0.00 | 86 | 1011.5 |
| 20260506183821 | 8 | 42 | 4.8 | 12.9 | 0.00 | 0.03 | 0.00 | 85 | 1011.7 |
| 20260506183542 | 8 | 3 | 3.2 | 9.7 | 0.00 | 0.03 | 0.00 | 84 | 1011.7 |
| 20260506182814 | 8 | 358 | 4.8 | 12.9 | 0.00 | 0.03 | 0.00 | 84 | 1011.9 |
| 20260506182528 | 8 | 30 | 3.2 | 12.9 | 0.00 | 0.03 | 0.00 | 83 | 1012.0 |
| 20260506181756 | 8 | 5 | 3.2 | 16.1 | 0.00 | 0.03 | 0.00 | 82 | 1012.0 |
| 20260506181740 | 8 | 0 | 3.2 | 16.1 | 0.00 | 0.03 | 0.00 | 81 | 1012.0 |
| 20260506180746 | 8 | 40 | 3.2 | 11.3 | 0.00 | 0.03 | 0.00 | 81 | 1012.1 |
| 20260506180459 | 8 | 49 | 1.6 | 11.3 | 0.00 | 0.03 | 0.00 | 80 | 1012.2 |
| 20260506175732 | 8 | 38 | 1.6 | 8.0 | 0.00 | 0.03 | 0.00 | 79 | 1012.2 |
| 20260506175226 | 8 | 17 | 0.0 | 4.8 | 0.00 | 0.03 | 0.00 | 79 | 1012.2 |
| 20260506174721 | 8 | 24 | 1.6 | 6.4 | 0.00 | 0.03 | 0.00 | 78 | 1012.3 |
| 20260506174215 | 9 | 321 | 1.6 | 6.4 | 0.00 | 0.03 | 0.00 | 77 | 1012.4 |
| 20260506173712 | 9 | 29 | 1.6 | 8.0 | 0.00 | 0.03 | 0.00 | 77 | 1012.5 |
| 20260506173432 | 9 | 22 | 3.2 | 9.7 | 0.00 | 0.03 | 0.00 | 76 | 1012.5 |
| 20260506172659 | 9 | 269 | 3.2 | 12.9 | 0.00 | 0.03 | 0.00 | 76 | 1012.6 |
| 20260506172153 | 9 | 287 | 4.8 | 12.9 | 0.00 | 0.03 | 0.00 | 76 | 1012.7 |
| 20260506171647 | 9 | 303 | 3.2 | 12.9 | 0.00 | 0.03 | 0.00 | 75 | 1012.8 |
| 20260506171140 | 9 | 30 | 1.6 | 9.7 | 0.00 | 0.03 | 0.00 | 75 | 1012.9 |
| 20260506170634 | 9 | 301 | 3.2 | 14.5 | 0.00 | 0.03 | 0.00 | 74 | 1012.8 |
| 20260506170129 | 9 | 267 | 3.2 | 16.1 | 0.00 | 0.03 | 0.00 | 75 | 1012.8 |
| 20260506165622 | 9 | 291 | 4.8 | 19.3 | 0.00 | 0.03 | 0.00 | 75 | 1013.0 |
| 20260506165354 | 9 | 10 | 4.8 | 19.3 | 0.00 | 0.03 | 0.00 | 75 | 1013.0 |
| 20260506164832 | 9 | 294 | 3.2 | 14.5 | 0.00 | 0.03 | 0.00 | 75 | 1013.2 |
| 20260506164109 | 8 | 273 | 3.2 | 14.5 | 0.00 | 0.03 | 0.00 | 75 | 1013.2 |
| 20260506163558 | 8 | 313 | 1.6 | 11.3 | 0.00 | 0.03 | 0.00 | 74 | 1013.4 |
| 20260506163050 | 8 | 292 | 1.6 | 11.3 | 0.00 | 0.03 | 0.00 | 74 | 1013.4 |
| 20260506162548 | 8 | 53 | 1.6 | 6.4 | 0.00 | 0.03 | 0.00 | 73 | 1013.5 |
| 20260506162040 | 8 | 46 | 1.6 | 6.4 | 0.00 | 0.03 | 0.00 | 73 | 1013.5 |
| 20260506161534 | 8 | 28 | 1.6 | 6.4 | 0.00 | 0.03 | 0.00 | 73 | 1013.5 |
| 20260506161028 | 8 | 70 | 0.0 | 3.2 | 0.00 | 0.03 | 0.00 | 72 | 1013.5 |
| 20260506160522 | 8 | 33 | 0.0 | 3.2 | 0.00 | 0.03 | 0.00 | 73 | 1013.6 |
| 20260506160236 | 8 | 90 | 0.0 | 3.2 | 0.00 | 0.03 | 0.00 | 72 | 1013.7 |
| 20260506155510 | 8 | 46 | 0.0 | 0.0 | 0.00 | 0.03 | 0.00 | 73 | 1014.0 |
| 20260506155003 | 8 | 46 | 0.0 | 0.0 | 0.00 | 0.03 | 0.00 | 73 | 1014.2 |
| 20260506154457 | 8 | 46 | 0.0 | 0.0 | 0.00 | 0.03 | 0.00 | 71 | 1014.2 |
| 20260506154216 | 8 | 46 | 0.0 | 3.2 | 0.00 | 0.03 | 0.00 | 71 | 1014.2 |
| 20260506153445 | 8 | 48 | 1.6 | 12.9 | 0.00 | 0.03 | 0.00 | 71 | 1014.4 |
| 20260506152939 | 8 | 215 | 1.6 | 12.9 | 0.00 | 0.03 | 0.00 | 71 | 1014.5 |
| 20260506152433 | 8 | 304 | 1.6 | 12.9 | 0.00 | 0.03 | 0.00 | 72 | 1014.5 |
| 20260506151927 | 8 | 280 | 1.6 | 12.9 | 0.00 | 0.03 | 0.00 | 73 | 1014.4 |
| 20260506151641 | 8 | 312 | 1.6 | 9.7 | 0.00 | 0.03 | 0.00 | 74 | 1014.4 |
| 20260506151138 | 8 | 315 | 1.6 | 12.9 | 0.00 | 0.03 | 0.00 | 74 | 1014.4 |
| 20260506150419 | 8 | 48 | 1.6 | 12.9 | 0.00 | 0.03 | 0.00 | 74 | 1014.4 |
| 20260506145918 | 8 | 33 | 1.6 | 12.9 | 0.00 | 0.03 | 0.00 | 74 | 1014.4 |
| 20260506145416 | 8 | 31 | 0.0 | 3.2 | 0.00 | 0.03 | 0.00 | 75 | 1014.5 |
| 20260506144915 | 8 | 54 | 0.0 | 0.0 | 0.00 | 0.03 | 0.00 | 74 | 1014.5 |
| 20260506144416 | 8 | 297 | 1.6 | 12.9 | 0.00 | 0.03 | 0.00 | 74 | 1014.5 |
| 20260506143913 | 7 | 303 | 1.6 | 12.9 | 0.00 | 0.03 | 0.00 | 76 | 1014.6 |
| 20260506143855 | 7 | 257 | 0.0 | 0.0 | 0.00 | 0.03 | 0.00 | 78 | 1014.7 |
| 20260506142910 | 7 | 257 | 0.0 | 1.6 | 0.00 | 0.03 | 0.00 | 78 | 1014.5 |
| 20260506142407 | 7 | 50 | 0.0 | 3.2 | 0.00 | 0.03 | 0.00 | 80 | 1014.6 |
| 20260506141906 | 7 | 293 | 0.0 | 3.2 | 0.00 | 0.03 | 0.00 | 80 | 1014.7 |
| 20260506141406 | 7 | 59 | 0.0 | 6.4 | 0.00 | 0.03 | 0.00 | 80 | 1014.6 |
| 20260506140905 | 7 | 355 | 0.0 | 6.4 | 0.00 | 0.03 | 0.00 | 79 | 1014.7 |
| 20260506140403 | 8 | 317 | 0.0 | 4.8 | 0.00 | 0.03 | 0.00 | 79 | 1014.8 |
| 20260506135901 | 8 | 317 | 0.0 | 4.8 | 0.00 | 0.03 | 0.03 | 78 | 1015.0 |
| 20260506135400 | 8 | 268 | 0.0 | 4.8 | 0.00 | 0.03 | 0.03 | 78 | 1014.8 |
| 20260506134901 | 8 | 344 | 0.0 | 8.0 | 0.00 | 0.03 | 0.03 | 78 | 1014.7 |
| 20260506134359 | 8 | 293 | 1.6 | 8.0 | 0.00 | 0.03 | 0.03 | 79 | 1014.8 |
| 20260506133858 | 8 | 12 | 1.6 | 8.0 | 0.00 | 0.03 | 0.03 | 79 | 1014.8 |
| 20260506133620 | 8 | 32 | 1.6 | 6.4 | 0.00 | 0.03 | 0.03 | 79 | 1015.0 |
| 20260506132940 | 8 | 42 | 1.6 | 9.7 | 0.00 | 0.03 | 0.03 | 79 | 1015.1 |
| 20260506132101 | 8 | 3 | 1.6 | 9.7 | 0.00 | 0.03 | 0.03 | 79 | 1015.0 |
| 20260506131557 | 8 | 40 | 1.6 | 9.7 | 0.00 | 0.03 | 0.03 | 79 | 1015.0 |
| 20260506130831 | 8 | 13 | 1.6 | 9.7 | 0.00 | 0.03 | 0.03 | 79 | 1015.2 |
| 20260506130325 | 8 | 315 | 1.6 | 9.7 | 0.00 | 0.03 | 0.03 | 79 | 1015.1 |
| 20260506125819 | 9 | 17 | 1.6 | 9.7 | 0.00 | 0.03 | 0.03 | 78 | 1015.1 |
| 20260506125314 | 8 | 12 | 1.6 | 9.7 | 0.00 | 0.03 | 0.03 | 79 | 1015.2 |
| 20260506124807 | 9 | 31 | 1.6 | 9.7 | 0.00 | 0.03 | 0.03 | 79 | 1015.2 |
| 20260506124301 | 9 | 28 | 1.6 | 12.9 | 0.00 | 0.03 | 0.03 | 79 | 1015.4 |
| 20260506123755 | 9 | 24 | 1.6 | 12.9 | 0.00 | 0.03 | 0.03 | 79 | 1015.4 |
| 20260506123251 | 9 | 353 | 1.6 | 9.7 | 0.00 | 0.03 | 0.03 | 80 | 1015.5 |
| 20260506122743 | 8 | 36 | 1.6 | 8.0 | 0.00 | 0.03 | 0.03 | 81 | 1015.6 |
| 20260506122456 | 8 | 310 | 1.6 | 8.0 | 0.00 | 0.03 | 0.03 | 81 | 1015.6 |
| 20260506121731 | 8 | 36 | 1.6 | 8.0 | 0.00 | 0.03 | 0.03 | 82 | 1015.6 |
| 20260506121225 | 8 | 344 | 1.6 | 6.4 | 0.00 | 0.03 | 0.03 | 82 | 1015.7 |
| 20260506120724 | 8 | 24 | 1.6 | 6.4 | 0.00 | 0.03 | 0.03 | 82 | 1015.7 |
| 20260506120214 | 8 | 353 | 1.6 | 8.0 | 0.00 | 0.03 | 0.03 | 82 | 1015.7 |
| 20260506115714 | 8 | 313 | 1.6 | 9.7 | 0.00 | 0.03 | 0.03 | 82 | 1015.7 |
| 20260506115436 | 8 | 321 | 3.2 | 9.7 | 0.00 | 0.03 | 0.03 | 83 | 1015.7 |
| 20260506114705 | 8 | 35 | 1.6 | 8.0 | 0.00 | 0.03 | 0.03 | 83 | 1015.5 |
| 20260506114203 | 8 | 30 | 1.6 | 4.8 | 0.00 | 0.03 | 0.03 | 82 | 1015.7 |
| 20260506113702 | 8 | 32 | 3.2 | 6.4 | 0.00 | 0.03 | 0.03 | 82 | 1015.8 |
| 20260506113201 | 8 | 23 | 3.2 | 6.4 | 0.00 | 0.03 | 0.03 | 83 | 1015.8 |
| 20260506112701 | 8 | 10 | 1.6 | 6.4 | 0.00 | 0.03 | 0.03 | 82 | 1015.8 |
| 20260506112202 | 9 | 30 | 1.6 | 11.3 | 0.00 | 0.03 | 0.03 | 82 | 1015.8 |
| 20260506111701 | 9 | 30 | 1.6 | 11.3 | 0.00 | 0.03 | 0.03 | 82 | 1015.9 |
| 20260506111421 | 9 | 9 | 1.6 | 11.3 | 0.00 | 0.03 | 0.03 | 82 | 1015.9 |
| 20260506110920 | 9 | 52 | 1.6 | 11.3 | 0.00 | 0.03 | 0.03 | 82 | 1016.0 |